Location: Antioch Baptist Church
(32.6696°N, 85.7327°W)
Time: 12:15:22
(UTC+00:00)

SL-16 R/B - Pass Details

Date: 14 July 2020
Orbit: 985 x 1006 km, 99.5° (Epoch: 09 August)

Event Time Altitude Azimuth Distance (km) Brightness Sun altitude
Exits shadow 08:57:23 18° 275° (W) 2,245 4.0 -19.5°
Drops below altitude 10° 09:00:47 10° 308° (NW) 2,778 4.8 -19.0°
Sets 09:04:10 0° 326° (NW) 3,735 5.7 -18.5°
